Location: Chiroubles
(46.1812°N, 4.6660°E)
Time: 16:20:36
(UTC+00:00)

Transit 4A - Pass Details

Date: 30 November 2020
Orbit: 864 x 980 km, 66.8° (Epoch: 26 January)

Event Time Altitude Azimuth Distance (km) Brightness Sun altitude
Rises 06:13:20 0° 175° (S) 3,610 11.4 -8.4°
Reaches altitude 10° 06:16:11 10° 164° (SSE) 2,685 10.9 -8.0°
Maximum altitude 06:21:24 28° 108° (ESE) 1,734 10.4 -7.1°
Drops below altitude 10° 06:26:41 10° 52° (NE) 2,736 10.7 -6.3°
Sets 06:29:37 0° 41° (NE) 3,691 11.2 -5.8°
